STARLINK-32275, 60360

Orbit data source: Space-Track

STARLINK-32275, 60360 is a payload satellite owned by SpaceX/Seattle (US) in LEO that was launched on Sun, 04 Aug 2024 UTC via an FALCON 9 launch vehicle from the Air Force Western Test Range (AFWTR). Payload-class satellites include a variety of spacecraft equipped with specific instruments for various scientific and technological missions. These include communications satellites like Starlink; space stations such as the ISS; scientific satellites like the Hubble; Earth observation satellites from companies like Planet Labs, Umbra, and HawkEye 360; GPS; miniature CubeSats for education and research; and military/defense satellites.

Loading next visibility...
Identifier
60360, 2024-138F
Orbit
LEO
Country
Flag of USUS
Related business
Manufacturer
SpaceX/Seattle
Mission
Operational Commercial Communications
Bus & Motor
STARLINK V2M, Unknown motor
Mass
730 kg wet, ~700 kg dry
Launch date (UTC)
2024-08-04 (1 year ago)
Launch vehicle
FALCON 9
Launch site
Air Force Western Test Range (AFWTR)
Object type
Payload
Rocket body
Debris
Shape & HBR
Box + 2 Pan, 14.5 m
Radar Cross Section
33.884 m², Large (>1 m²)

Expand to show TLE details & history
Last TLE update: 6 hours ago

TLE from 6 hours ago
0 STARLINK-32275
1 60360U 24138F   25258.62099564  .00000293  00000-0  22008-4 0  9996
2 60360  53.1613  42.7888 0000962  60.7130 299.3966 15.30200173 63822
Epoch: 2025-09-15T14:54Z
TLE epoch observation values (Epoch: 2025-09-15T14:54:14.023Z)
Latitude
-0.00008°
Longitude
-175.59271°
Altitude
475.791 km
Speed
7.629 km/s
True Right ascension
02h 51m 09s
True Declination
0° 00' 00"
Sunlit
Object was in full shadow at epoch
Visualization orbit readout
Latitude
Unknown
Longitude
Unknown
Altitude
Unknown
Speed
Unknown
Apparent Right ascension
Unknown
Apparent Declination
Unknown
Sunlit
N/A
Visualization observer readout
Local Sidereal Time
13:54:33
Azimuth
Unknown
Elevation
Unknown
Doppler factor
Unknown
Orbital elements
Apogee altitude
476.13 km
Perigee altitude
474.811 km
Semi-major axis
6,853.608 km
Eccentricity
0.0001
Inclination
53.1613°
RAAN
42.7888°
Arg. of periapsis
60.713°
True anomaly
299.387°
Mean anomaly
299.3966°
Eccentric anomaly
299.3918°
Mean motion
3.82529 °/min
Orbital period
94.11 mins
BSTAR
0.000022008
Loading maneuver chart data...
Computing Atmospheric mass density...
Loading historical data...
Loading historical data...
Loading historical data...
Loading historical data...
Loading historical data...
Loading historical data...
Loading historical data...

Documentation

Showing up to 5 results
|